Location: Splawn
(30.9202°N, 96.9858°W)
Time: 01:14:40
(UTC+00:00)

Transit 2A Rocket - Pass Details

Date: 07 March 2020
Orbit: 588 x 915 km, 66.7° (Epoch: 06 April)

Event Time Altitude Azimuth Distance (km) Brightness Sun altitude
Rises 11:55:44 0° 316° (NW) 3,317 - -11.8°
Exits shadow 11:58:04 - 305° (NW) 2,581 7.2 -11.3°
Reaches altitude 10° 11:58:35 10° 302° (WNW) 2,436 7.1 -11.2°
Maximum altitude 12:02:51 22° 253° (WSW) 1,783 6.3 -10.3°
Drops below altitude 10° 12:07:18 10° 204° (SSW) 2,551 7.5 -9.3°
Sets 12:10:23 0° 190° (S) 3,513 8.3 -8.7°
